Tehachapi, CA

2:41 AM PDT on June 24, 2017 (GMT -0700)
Tehachapi Municipal

Weather History for KTSP - May, 2013

Change the Weather History Date:

Wednesday, May 1, 2013

  Actual Average Record
Temperature  
Mean Temperature 58 °F -  
Max Temperature 75 °F 67 °F 78 °F (2015)
Min Temperature 41 °F 40 °F 33 °F (2016)
Degree Days  
Heating Degree Days 7    
Growing Degree Days 8 (Base 50)    
Moisture  
Dew Point 16 °F    
Average Humidity 25    
Maximum Humidity 71    
Minimum Humidity 5    
Precipitation  
Precipitation 0.00 in - - ()
Sea Level Pressure  
Sea Level Pressure 30.10 in    
Wind  
Wind Speed 12 mph (ESE)    
Max Wind Speed 23 mph    
Max Gust Speed 32 mph    
Visibility 10 miles    
Events      
Averages and records for this station are not official NWS values.
T = Trace of Precipitation, MM = Missing Value Source: NWS Daily Summary

Daily Weather History Graph

Daily Weather History Graph

Search for Another Location

Airport or City:

Trip Planner

Search our weather history database for the weather conditions in past years. The results will help you decide how hot, cold, wet, or windy it might be!

Date:

Astronomy

May. 01, 2013 Rise Set
Actual Time 6:02 AM PDT 7:39 PM PDT
Civil Twilight 5:35 AM PDT 8:06 PM PDT
Nautical Twilight 5:02 AM PDT 8:39 PM PDT
Astronomical Twilight 4:28 AM PDT 9:14 PM PDT
Moon 12:52 AM PDT (5/1) 11:45 AM PDT (5/1)
Length of Visible Light 14h 31m
Length of Day
13h 37m
Waning Gibbous, 58% of the Moon is Illuminated
May 1
Waning Gibbous
May 2
Last Quarter
May 9
New
May 17
First Quarter
May 24
Full

Hourly Weather History & Observations

Time (PDT) Temp. Windchill Dew Point Humidity Pressure Visibility Wind Dir Wind Speed Gust Speed Precip Events Conditions
12:15 AM 57.2 °F - 33.8 °F 41% 29.94 in 10.0 mi WNW 17.3 mph 23.0 mph N/A   Clear
12:35 AM 57.2 °F - 35.6 °F 44% 29.95 in 10.0 mi WNW 16.1 mph - N/A   Clear
12:55 AM 55.4 °F - 37.4 °F 51% 29.95 in 10.0 mi WNW 15.0 mph - N/A   Clear
1:15 AM 55.4 °F - 37.4 °F 51% 29.96 in 10.0 mi West 11.5 mph 16.1 mph N/A   Clear
1:35 AM 55.4 °F - 37.4 °F 51% 29.96 in 10.0 mi WNW 12.7 mph - N/A   Clear
1:55 AM 53.6 °F - 35.6 °F 51% 29.96 in 9.0 mi WNW 9.2 mph - N/A   Clear
2:15 AM 53.6 °F - 33.8 °F 47% 29.97 in 9.0 mi West 11.5 mph - N/A   Clear
2:35 AM 53.6 °F - 33.8 °F 47% 29.97 in 10.0 mi West 8.1 mph - N/A   Clear
2:55 AM 51.8 °F - 33.8 °F 50% 29.97 in 10.0 mi West 8.1 mph - N/A   Clear
3:15 AM 50.0 °F - 33.8 °F 54% 29.97 in 9.0 mi West 6.9 mph - N/A   Clear
3:35 AM 50.0 °F - 33.8 °F 54% 29.97 in 10.0 mi North 4.6 mph - N/A   Clear
3:55 AM 48.2 °F - 33.8 °F 58% 29.98 in 10.0 mi Calm Calm - N/A   Clear
4:15 AM 48.2 °F - 33.8 °F 58% 29.98 in 10.0 mi Calm Calm - N/A   Clear
4:35 AM 46.4 °F - 33.8 °F 62% 29.98 in 10.0 mi Calm Calm - N/A   Clear
4:55 AM 46.4 °F 43.5 °F 33.8 °F 62% 29.99 in 9.0 mi ESE 5.8 mph - N/A   Clear
5:15 AM 44.6 °F 39.7 °F 33.8 °F 66% 30.00 in 9.0 mi SE 9.2 mph - N/A   Clear
5:35 AM 42.8 °F 39.3 °F 32.0 °F 66% 30.00 in 10.0 mi ESE 5.8 mph - N/A   Clear
5:55 AM 42.8 °F 40.1 °F 32.0 °F 66% 30.01 in 9.0 mi ESE 4.6 mph - N/A   Clear
6:15 AM 41.0 °F 38.0 °F 32.0 °F 70% 30.02 in 8.0 mi SE 4.6 mph - N/A   Clear
6:35 AM 44.6 °F - 32.0 °F 61% 30.03 in 8.0 mi Calm Calm - N/A   Clear
6:55 AM 44.6 °F 41.4 °F 35.6 °F 71% 30.03 in 7.0 mi SE 5.8 mph - N/A   Clear
7:15 AM 50.0 °F - 33.8 °F 54% 30.04 in 9.0 mi East 6.9 mph - N/A   Clear
7:35 AM 53.6 °F - 35.6 °F 51% 30.05 in 9.0 mi ESE 6.9 mph - N/A   Clear
7:55 AM 57.2 °F - 32.0 °F 38% 30.06 in 8.0 mi East 10.4 mph - N/A   Clear
8:15 AM 62.6 °F - 23.0 °F 22% 30.06 in 7.0 mi ESE 12.7 mph - N/A   Clear
8:35 AM 64.4 °F - 15.8 °F 15% 30.07 in 8.0 mi SE 19.6 mph 23.0 mph N/A   Clear
8:55 AM 66.2 °F - 12.2 °F 12% 30.08 in 9.0 mi ESE 16.1 mph 24.2 mph N/A   Clear
9:15 AM 68.0 °F - 14.0 °F 12% 30.08 in 9.0 mi East 19.6 mph 26.5 mph N/A   Clear
9:35 AM 68.0 °F - 14.0 °F 12% 30.08 in 9.0 mi East 18.4 mph 26.5 mph N/A   Clear
9:55 AM 68.0 °F - 12.2 °F 12% 30.09 in 9.0 mi East 18.4 mph 25.3 mph N/A   Clear
10:15 AM 68.0 °F - 12.2 °F 12% 30.10 in 10.0 mi ENE 18.4 mph 25.3 mph N/A   Clear
10:35 AM 69.8 °F - 10.4 °F 10% 30.10 in 10.0 mi ESE 17.3 mph 28.8 mph N/A   Clear
10:55 AM 71.6 °F - 12.2 °F 10% 30.11 in 10.0 mi East 18.4 mph 27.6 mph N/A   Clear
11:15 AM 71.6 °F - 10.4 °F 9% 30.12 in 10.0 mi ESE 18.4 mph 25.3 mph N/A   Clear
11:35 AM 71.6 °F - 10.4 °F 9% 30.12 in 9.0 mi East 15.0 mph 27.6 mph N/A   Clear
12:15 PM 73.4 °F - 10.4 °F 9% 30.13 in 10.0 mi East 17.3 mph 31.1 mph N/A   Clear
12:35 PM 73.4 °F - 10.4 °F 9% 30.13 in 10.0 mi East 17.3 mph 24.2 mph N/A   Clear
12:55 PM 73.4 °F - 10.4 °F 9% 30.13 in 8.0 mi ESE 19.6 mph 32.2 mph N/A   Clear
1:15 PM 73.4 °F - 10.4 °F 9% 30.14 in 10.0 mi SE 23.0 mph 29.9 mph N/A   Clear
1:35 PM 73.4 °F - 10.4 °F 9% 30.14 in 9.0 mi ESE 19.6 mph 28.8 mph N/A   Clear
1:55 PM 73.4 °F - 8.6 °F 8% 30.14 in 10.0 mi ESE 19.6 mph 29.9 mph N/A   Clear
2:15 PM 75.2 °F - 12.2 °F 9% 30.14 in 10.0 mi SE 21.9 mph 26.5 mph N/A   Clear
2:35 PM 73.4 °F - 12.2 °F 10% 30.14 in 10.0 mi ESE 17.3 mph 26.5 mph N/A   Clear
2:55 PM 75.2 °F - 10.4 °F 8% 30.15 in 10.0 mi ESE 19.6 mph 25.3 mph N/A   Clear
3:15 PM 75.2 °F - 10.4 °F 8% 30.15 in 10.0 mi East 18.4 mph 25.3 mph N/A   Clear
3:35 PM 75.2 °F - 10.4 °F 8% 30.15 in 10.0 mi East 17.3 mph 24.2 mph N/A   Clear
3:55 PM 75.2 °F - 8.6 °F 8% 30.15 in 10.0 mi East 13.8 mph 20.7 mph N/A   Clear
4:15 PM 75.2 °F - 8.6 °F 8% 30.15 in 10.0 mi ESE 16.1 mph 21.9 mph N/A   Clear
4:35 PM 75.2 °F - 10.4 °F 8% 30.15 in 10.0 mi ENE 13.8 mph 18.4 mph N/A   Clear
4:55 PM 75.2 °F - 8.6 °F 8% 30.15 in 10.0 mi East 12.7 mph 18.4 mph N/A   Clear
5:15 PM 75.2 °F - 8.6 °F 8% 30.15 in 10.0 mi East 11.5 mph 19.6 mph N/A   Clear
5:35 PM 73.4 °F - 8.6 °F 8% 30.16 in 10.0 mi East 18.4 mph 21.9 mph N/A   Clear
5:55 PM 73.4 °F - 6.8 °F 8% 30.16 in 10.0 mi East 12.7 mph 18.4 mph N/A   Clear
6:15 PM 73.4 °F - 5.0 °F 7% 30.16 in 10.0 mi East 15.0 mph - N/A   Clear
6:35 PM 71.6 °F - 1.4 °F 6% 30.16 in 10.0 mi East 13.8 mph 19.6 mph N/A   Clear
6:55 PM 71.6 °F - -0.4 °F 6% 30.17 in 10.0 mi East 11.5 mph 20.7 mph N/A   Clear
7:15 PM 69.8 °F - -4.0 °F 5% 30.18 in 10.0 mi East 11.5 mph - N/A   Clear
7:35 PM 68.0 °F - -4.0 °F 6% 30.18 in 10.0 mi East 6.9 mph - N/A   Clear
7:55 PM 66.2 °F - -7.6 °F 5% 30.19 in 10.0 mi ESE 6.9 mph - N/A   Clear
8:35 PM 57.2 °F - 1.4 °F 10% 30.20 in 10.0 mi SSE 6.9 mph - N/A   Clear
8:55 PM 57.2 °F - -0.4 °F 10% 30.21 in 10.0 mi SSE 5.8 mph - N/A   Clear
9:15 PM 55.4 °F - 1.4 °F 11% 30.22 in 10.0 mi SE 8.1 mph - N/A   Clear
9:35 PM 55.4 °F - -0.4 °F 10% 30.23 in 10.0 mi SE 8.1 mph - N/A   Clear
9:55 PM 53.6 °F - -2.2 °F 10% 30.23 in 10.0 mi SE 9.2 mph - N/A   Clear
10:15 PM 53.6 °F - -2.2 °F 10% 30.24 in 10.0 mi SE 9.2 mph - N/A   Clear
10:35 PM 51.8 °F - -0.4 °F 12% 30.24 in 10.0 mi SE 9.2 mph - N/A   Clear
10:55 PM 53.6 °F - -4.0 °F 9% 30.25 in 10.0 mi ESE 6.9 mph - N/A   Clear
11:15 PM 50.0 °F - -0.4 °F 13% 30.25 in 10.0 mi ESE 9.2 mph - N/A   Clear
11:35 PM 50.0 °F - -0.4 °F 13% 30.25 in 10.0 mi ESE 5.8 mph - N/A   Clear
11:55 PM 50.0 °F - -2.2 °F 12% 30.25 in 10.0 mi SE 8.1 mph - N/A   Clear